Powrót do katalogu

TIANMU-1 12

AktywnyPogodaSSO
NORAD 58646·PAYLOAD·🇨🇳 China

Wystrzelony Dec 25, 2023 z Jiuquan Satellite Launch Center

Loading…

Następne Przeloty (najbliższe 24 godziny)

TLE

ŚwieżeSource: Space-Track

Epoka: Sep 14, 2026, 22:08 UTC

1 58646U 23205B   26257.92267895  .00004935  00000-0  18629-3 0  9991
2 58646  97.3419 277.8212 0008540  43.2936 316.8973 15.27446752151206

Śledź TIANMU-1 12 w czasie rzeczywistym z AllMySat

Download on the App Store